TimeCST,TemperatureF,Dew PointF,Humidity,Sea Level PressureIn,VisibilityMPH,Wind Direction,Wind SpeedMPH,Gust SpeedMPH,PrecipitationIn,Events,Conditions,WindDirDegrees,DateUTC
12:54 AM,10.0,3.0,73,30.10,10.0,NNW,10.4,-,N/A,,Clear,330,2013-02-15 06:54:00
1:54 AM,8.1,1.0,73,30.12,10.0,NW,8.1,-,N/A,,Clear,310,2013-02-15 07:54:00
2:54 AM,8.1,-0.0,70,30.13,10.0,WNW,6.9,-,N/A,,Clear,300,2013-02-15 08:54:00
3:54 AM,6.1,-0.0,76,30.14,10.0,WNW,5.8,-,N/A,,Clear,290,2013-02-15 09:54:00
4:54 AM,5.0,-0.9,76,30.15,10.0,WNW,8.1,-,N/A,,Clear,300,2013-02-15 10:54:00
5:54 AM,6.1,-0.9,73,30.17,10.0,WNW,9.2,-,N/A,,Overcast,300,2013-02-15 11:54:00
6:54 AM,6.1,-0.9,73,30.18,10.0,WNW,8.1,-,N/A,,Overcast,300,2013-02-15 12:54:00
7:54 AM,7.0,-0.9,70,30.19,10.0,WNW,8.1,-,N/A,,Overcast,300,2013-02-15 13:54:00
8:54 AM,8.1,-0.0,70,30.21,10.0,WNW,10.4,-,N/A,,Mostly Cloudy,300,2013-02-15 14:54:00
9:54 AM,10.0,1.9,70,30.22,10.0,NW,10.4,-,N/A,,Overcast,310,2013-02-15 15:54:00
10:54 AM,12.9,3.0,65,30.22,10.0,WNW,9.2,-,N/A,,Clear,300,2013-02-15 16:54:00
11:54 AM,12.9,3.0,65,30.22,10.0,WNW,10.4,-,N/A,,Clear,300,2013-02-15 17:54:00
12:54 PM,14.0,3.9,64,30.21,10.0,WNW,10.4,-,N/A,,Clear,300,2013-02-15 18:54:00
1:54 PM,15.1,3.0,59,30.20,10.0,NW,12.7,-,N/A,,Clear,310,2013-02-15 19:54:00
2:54 PM,15.1,3.9,61,30.20,10.0,WNW,11.5,-,N/A,,Clear,300,2013-02-15 20:54:00
3:54 PM,15.1,3.0,59,30.22,10.0,WNW,11.5,-,N/A,,Clear,290,2013-02-15 21:54:00
4:54 PM,12.9,1.9,62,30.23,10.0,WNW,12.7,-,N/A,,Clear,300,2013-02-15 22:54:00
5:54 PM,10.9,-0.0,61,30.24,10.0,WNW,9.2,-,N/A,,Clear,300,2013-02-15 23:54:00
6:54 PM,8.1,-2.0,64,30.25,10.0,West,6.9,-,N/A,,Clear,280,2013-02-16 00:54:00
7:54 PM,6.1,-2.9,67,30.25,10.0,WNW,5.8,-,N/A,,Clear,290,2013-02-16 01:54:00
8:54 PM,3.9,-4.0,70,30.26,10.0,WNW,4.6,-,N/A,,Scattered Clouds,290,2013-02-16 02:54:00
9:54 PM,3.9,-4.0,70,30.25,10.0,WNW,4.6,-,N/A,,Overcast,290,2013-02-16 03:54:00
10:54 PM,3.9,-2.9,73,30.24,10.0,WNW,4.6,-,N/A,,Overcast,290,2013-02-16 04:54:00
11:54 PM,6.1,-0.9,73,30.23,9.0,NNW,4.6,-,N/A,,Overcast,330,2013-02-16 05:54:00